Weather in Songnim

North Korea     38°45′12″N   125°38′45″E
temp.,
°C
wind,
m/s
gust,
m/s
humid.,
%
clouds,
%
prec.,
mm/h
press.,
hPa
HPBL,
m
11 april, sun
sun1100:00+10se11495 0.0 103110
03:00+9se115347 0.0 103110
06:00+8se115625 0.0 103110
09:00+13se11455 0.0 1031335
12:00+18ssw2333100 0.0 10301093
15:00+19ssw2332100 0.0 10281628
18:00+17w4445100 0.0 1027415
21:00+14n1153100 0.0 102851
12 april, mon
mon1200:00+13ne1155100 0.0 102711
03:00+13s0157100 0.0 102510
06:00+12nnw1158100 0.0 102410
09:00+12wnw2355100 0.1 1024384
12:00+10e5880100 2.8 1022613
15:00+10ese61181100 6.3 1018976
18:00+10ese61287100 4.9 1014835
21:00+10ese3890100 8.7 1013554
13 april, tue
tue1300:00+9nne3594100 1.0 1012273
03:00+9nnw3789100 1.1 1012344
06:00+8wnw5108636 0.0 1013476
09:00+10wnw787138 0.0 1015784
12:00+12nw810470 0.0 10141191
15:00+12nw910330 0.0 10141621
18:00+10nw8103898 0.0 10151563
21:00+8nw7134396 0.0 1017537
14 april, wed
wed1400:00+7nnw512433 0.0 1019391
03:00+5wnw22480 0.0 101928
06:00+4wnw22460 0.0 102013
09:00+9wsw24350 0.0 1021554
12:00+13w79300 0.0 10201310
15:00+13w79370 0.0 10191100
18:00+11w57480 0.0 1019614
21:00+7sw12650 0.0 102051
15 april, thu
thu1500:00+7sse23610 0.0 102037
03:00+6sse22631 0.0 101924
06:00+5sse336616 0.0 101946
09:00+11s68490 0.0 1018643
12:00+16ssw710302 0.0 10171512
15:00+16ssw1012280 0.0 10151530
18:00+13ssw8143822 0.0 10151184
21:00+10ssw71448100 0.0 1017799